Year,Month,Day,Hour,Minute,Value (Times are PST for temperature in C)
2012,04,16,00,00,9.20
2012,04,16,00,01,9.20
2012,04,16,00,02,9.20
2012,04,16,00,03,9.20
2012,04,16,00,04,9.10
2012,04,16,00,05,9.10
2012,04,16,00,06,9.10
2012,04,16,00,07,9.10
2012,04,16,00,08,9.10
2012,04,16,00,09,9.10
2012,04,16,00,10,9.10
2012,04,16,00,11,9.10
2012,04,16,00,12,9.10
2012,04,16,00,13,9.10
2012,04,16,00,14,9.00
2012,04,16,00,15,9.00
2012,04,16,00,16,9.00
2012,04,16,00,17,9.00
2012,04,16,00,18,9.00
2012,04,16,00,19,9.00
2012,04,16,00,20,9.00
2012,04,16,00,21,9.00
2012,04,16,00,22,9.00
2012,04,16,00,23,9.00
2012,04,16,00,24,9.00
2012,04,16,00,25,9.00
2012,04,16,00,26,9.00
2012,04,16,00,27,9.00
2012,04,16,00,28,9.00
2012,04,16,00,29,9.00
2012,04,16,00,30,9.00
2012,04,16,00,31,9.00
2012,04,16,00,32,9.00
2012,04,16,00,33,9.00
2012,04,16,00,34,9.00
2012,04,16,00,35,9.10
2012,04,16,00,36,9.10
2012,04,16,00,37,9.10
2012,04,16,00,38,9.10
2012,04,16,00,39,9.10
2012,04,16,00,40,9.10
2012,04,16,00,41,9.10
2012,04,16,00,42,9.10
2012,04,16,00,43,9.20
2012,04,16,00,44,9.20
2012,04,16,00,45,9.20
2012,04,16,00,46,9.20
2012,04,16,00,47,9.30
2012,04,16,00,48,9.30
2012,04,16,00,49,9.30
2012,04,16,00,50,9.30
2012,04,16,00,51,9.30
2012,04,16,00,52,9.30
2012,04,16,00,53,9.30
2012,04,16,00,54,9.30
2012,04,16,00,55,9.30
2012,04,16,00,56,9.30
2012,04,16,00,57,9.30
2012,04,16,00,58,9.30
2012,04,16,00,59,9.30
2012,04,16,01,00,9.30
2012,04,16,01,01,9.30
2012,04,16,01,02,9.30
2012,04,16,01,03,9.30
2012,04,16,01,04,9.30
2012,04,16,01,05,9.30
2012,04,16,01,06,9.40
2012,04,16,01,07,9.40
2012,04,16,01,08,9.40
2012,04,16,01,09,9.40
2012,04,16,01,10,9.40
2012,04,16,01,11,9.40
2012,04,16,01,12,9.40
2012,04,16,01,13,9.30
2012,04,16,01,14,9.30
2012,04,16,01,15,9.30
2012,04,16,01,16,9.30
2012,04,16,01,17,9.30
2012,04,16,01,18,9.30
2012,04,16,01,19,9.30
2012,04,16,01,20,9.30
2012,04,16,01,21,9.30
2012,04,16,01,22,9.30
2012,04,16,01,23,9.20
2012,04,16,01,24,9.20
2012,04,16,01,25,9.20
2012,04,16,01,26,9.20
2012,04,16,01,27,9.20
2012,04,16,01,28,9.20
2012,04,16,01,29,9.20
2012,04,16,01,30,9.20
2012,04,16,01,31,9.20
2012,04,16,01,32,9.20
2012,04,16,01,33,9.10
2012,04,16,01,34,9.10
2012,04,16,01,35,9.10
2012,04,16,01,36,9.10
2012,04,16,01,37,9.00
2012,04,16,01,38,8.90
2012,04,16,01,39,8.90
2012,04,16,01,40,8.90
2012,04,16,01,41,8.90
2012,04,16,01,42,8.80
2012,04,16,01,43,8.80
2012,04,16,01,44,8.70
2012,04,16,01,45,8.70
2012,04,16,01,46,8.60
2012,04,16,01,47,8.60
2012,04,16,01,48,8.60
2012,04,16,01,49,8.60
2012,04,16,01,50,8.50
2012,04,16,01,51,8.50
2012,04,16,01,52,8.50
2012,04,16,01,53,8.50
2012,04,16,01,54,8.40
2012,04,16,01,55,8.40
2012,04,16,01,56,8.40
2012,04,16,01,57,8.40
2012,04,16,01,58,8.40
2012,04,16,01,59,8.40
2012,04,16,02,00,8.40
2012,04,16,02,01,8.40
2012,04,16,02,02,8.40
2012,04,16,02,03,8.40
2012,04,16,02,04,8.40
2012,04,16,02,05,8.40
2012,04,16,02,06,8.40
2012,04,16,02,07,8.40
2012,04,16,02,08,8.30
2012,04,16,02,09,8.30
2012,04,16,02,10,8.30
2012,04,16,02,11,8.30
2012,04,16,02,12,8.30
2012,04,16,02,13,8.30
2012,04,16,02,14,8.30
2012,04,16,02,15,8.30
2012,04,16,02,16,8.20
2012,04,16,02,17,8.20
2012,04,16,02,18,8.20
2012,04,16,02,19,8.20
2012,04,16,02,20,8.20
2012,04,16,02,21,8.20
2012,04,16,02,22,8.10
2012,04,16,02,23,8.10
2012,04,16,02,24,8.10
2012,04,16,02,25,8.10
2012,04,16,02,26,8.10
2012,04,16,02,27,8.10
2012,04,16,02,28,8.10
2012,04,16,02,29,8.10
2012,04,16,02,30,8.10
2012,04,16,02,31,8.00
2012,04,16,02,32,8.00
2012,04,16,02,33,7.90
2012,04,16,02,34,7.90
2012,04,16,02,35,7.90
2012,04,16,02,36,7.90
2012,04,16,02,37,7.90
2012,04,16,02,38,7.80
2012,04,16,02,39,7.80
2012,04,16,02,40,7.80
2012,04,16,02,41,7.80
2012,04,16,02,42,7.80
2012,04,16,02,43,7.80
2012,04,16,02,44,7.80
2012,04,16,02,45,7.70
2012,04,16,02,46,7.70
2012,04,16,02,47,7.80
2012,04,16,02,48,7.80
2012,04,16,02,49,7.80
2012,04,16,02,50,7.80
2012,04,16,02,51,7.80
2012,04,16,02,52,7.80
2012,04,16,02,53,7.80
2012,04,16,02,54,7.80
2012,04,16,02,55,7.80
2012,04,16,02,56,7.70
2012,04,16,02,57,7.70
2012,04,16,02,58,7.70
2012,04,16,02,59,7.70
2012,04,16,03,00,7.80
2012,04,16,03,01,7.80
2012,04,16,03,02,7.70
2012,04,16,03,03,7.70
2012,04,16,03,04,7.70
2012,04,16,03,05,7.70
2012,04,16,03,06,7.70
2012,04,16,03,07,7.70
2012,04,16,03,08,7.70
2012,04,16,03,09,7.70
2012,04,16,03,10,7.70
2012,04,16,03,11,7.60
2012,04,16,03,12,7.60
2012,04,16,03,13,7.60
2012,04,16,03,14,7.60
2012,04,16,03,15,7.60
2012,04,16,03,16,7.60
2012,04,16,03,17,7.50
2012,04,16,03,18,7.50
2012,04,16,03,19,7.40
2012,04,16,03,20,7.40
2012,04,16,03,21,7.40
2012,04,16,03,22,7.40
2012,04,16,03,23,7.40
2012,04,16,03,24,7.40
2012,04,16,03,25,7.30
2012,04,16,03,26,7.30
2012,04,16,03,27,7.30
2012,04,16,03,28,7.30
2012,04,16,03,29,7.30
2012,04,16,03,30,7.30
2012,04,16,03,31,7.30
2012,04,16,03,32,7.30
2012,04,16,03,33,7.30
2012,04,16,03,34,7.30
2012,04,16,03,35,7.30
2012,04,16,03,36,7.30
2012,04,16,03,37,7.30
2012,04,16,03,38,7.30
2012,04,16,03,39,7.30
2012,04,16,03,40,7.30
2012,04,16,03,41,7.30
2012,04,16,03,42,7.30
2012,04,16,03,43,7.30
2012,04,16,03,44,7.30
2012,04,16,03,45,7.30
2012,04,16,03,46,7.20
2012,04,16,03,47,7.20
2012,04,16,03,48,7.20
2012,04,16,03,49,7.20
2012,04,16,03,50,7.20
2012,04,16,03,51,7.20
2012,04,16,03,52,7.20
2012,04,16,03,53,7.20
2012,04,16,03,54,7.20
2012,04,16,03,55,7.20
2012,04,16,03,56,7.20
2012,04,16,03,57,7.20
2012,04,16,03,58,7.20
2012,04,16,03,59,7.20
2012,04,16,04,00,7.20
2012,04,16,04,01,7.20
2012,04,16,04,02,7.20
2012,04,16,04,03,7.20
2012,04,16,04,04,7.20
2012,04,16,04,05,7.20
2012,04,16,04,06,7.20
2012,04,16,04,07,7.20
2012,04,16,04,08,7.20
2012,04,16,04,09,7.20
2012,04,16,04,10,7.20
2012,04,16,04,11,7.20
2012,04,16,04,12,7.20
2012,04,16,04,13,7.20
2012,04,16,04,14,7.20
2012,04,16,04,15,7.20
2012,04,16,04,16,7.20
2012,04,16,04,17,7.20
2012,04,16,04,18,7.20
2012,04,16,04,19,7.20
2012,04,16,04,20,7.20
2012,04,16,04,21,7.20
2012,04,16,04,22,7.20
2012,04,16,04,23,7.20
2012,04,16,04,24,7.20
2012,04,16,04,25,7.20
2012,04,16,04,26,7.20
2012,04,16,04,27,7.20
2012,04,16,04,28,7.20
2012,04,16,04,29,7.20
2012,04,16,04,30,7.20
2012,04,16,04,31,7.20
2012,04,16,04,32,7.20
2012,04,16,04,33,7.20
2012,04,16,04,34,7.20
2012,04,16,04,35,7.20
2012,04,16,04,36,7.20
2012,04,16,04,37,7.20
2012,04,16,04,38,7.20
2012,04,16,04,39,7.20
2012,04,16,04,40,7.20
2012,04,16,04,41,7.20
2012,04,16,04,42,7.20
2012,04,16,04,43,7.20
2012,04,16,04,44,7.20
2012,04,16,04,45,7.20
2012,04,16,04,46,7.20
2012,04,16,04,47,7.20
2012,04,16,04,48,7.20
2012,04,16,04,49,7.20
2012,04,16,04,50,7.20
2012,04,16,04,51,7.20
2012,04,16,04,52,7.20
2012,04,16,04,53,7.20
2012,04,16,04,54,7.20
2012,04,16,04,55,7.20
2012,04,16,04,56,7.20
2012,04,16,04,57,7.30
2012,04,16,04,58,7.30
2012,04,16,04,59,7.30
2012,04,16,05,00,7.30
2012,04,16,05,01,7.30
2012,04,16,05,02,7.30
2012,04,16,05,03,7.30
2012,04,16,05,04,7.30
2012,04,16,05,05,7.40
2012,04,16,05,06,7.40
2012,04,16,05,07,7.40
2012,04,16,05,08,7.40
2012,04,16,05,09,7.40
2012,04,16,05,10,7.40
2012,04,16,05,11,7.40
2012,04,16,05,12,7.40
2012,04,16,05,13,7.40
2012,04,16,05,14,7.40
2012,04,16,05,15,7.40
2012,04,16,05,16,7.40
2012,04,16,05,17,7.40
2012,04,16,05,18,7.40
2012,04,16,05,19,7.40
2012,04,16,05,20,7.40
2012,04,16,05,21,7.40
2012,04,16,05,22,7.40
2012,04,16,05,23,7.40
2012,04,16,05,24,7.40
2012,04,16,05,25,7.40
2012,04,16,05,26,7.40
2012,04,16,05,27,7.40
2012,04,16,05,28,7.40
2012,04,16,05,29,7.40
2012,04,16,05,30,7.40
2012,04,16,05,31,7.40
2012,04,16,05,32,7.40
2012,04,16,05,33,7.40
2012,04,16,05,34,7.40
2012,04,16,05,35,7.40
2012,04,16,05,36,7.30
2012,04,16,05,37,7.30
2012,04,16,05,38,7.30
2012,04,16,05,39,7.30
2012,04,16,05,40,7.30
2012,04,16,05,41,7.30
2012,04,16,05,42,7.30
2012,04,16,05,43,7.30
2012,04,16,05,44,7.30
2012,04,16,05,45,7.30
2012,04,16,05,46,7.30
2012,04,16,05,47,7.30
2012,04,16,05,48,7.20
2012,04,16,05,49,7.20
2012,04,16,05,50,7.20
2012,04,16,05,51,7.20
2012,04,16,05,52,7.20
2012,04,16,05,53,7.20
2012,04,16,05,54,7.20
2012,04,16,05,55,7.20
2012,04,16,05,56,7.20
2012,04,16,05,57,7.20
2012,04,16,05,58,7.20
2012,04,16,05,59,7.20
2012,04,16,06,00,7.20
2012,04,16,06,01,7.20
2012,04,16,06,02,7.20
2012,04,16,06,03,7.20
2012,04,16,06,04,7.20
2012,04,16,06,05,7.20
2012,04,16,06,06,7.20
2012,04,16,06,07,7.20
2012,04,16,06,08,7.20
2012,04,16,06,09,7.20
2012,04,16,06,10,7.20
2012,04,16,06,11,7.20
2012,04,16,06,12,7.20
2012,04,16,06,13,7.20
2012,04,16,06,14,7.20
2012,04,16,06,15,7.20
2012,04,16,06,16,7.20
2012,04,16,06,17,7.20
2012,04,16,06,18,7.20
2012,04,16,06,19,7.20
2012,04,16,06,20,7.20
2012,04,16,06,21,7.20
2012,04,16,06,22,7.20
2012,04,16,06,23,7.20
2012,04,16,06,24,7.20
2012,04,16,06,25,7.20
2012,04,16,06,26,7.20
2012,04,16,06,27,7.20
2012,04,16,06,28,7.20
2012,04,16,06,29,7.20
2012,04,16,06,30,7.20
2012,04,16,06,31,7.20
2012,04,16,06,32,7.20
2012,04,16,06,33,7.20
2012,04,16,06,34,7.20
2012,04,16,06,35,7.20
2012,04,16,06,36,7.20
2012,04,16,06,37,7.20
2012,04,16,06,38,7.20
2012,04,16,06,39,7.20
2012,04,16,06,40,7.20
2012,04,16,06,41,7.20
2012,04,16,06,42,7.20
2012,04,16,06,43,7.20
2012,04,16,06,44,7.20
2012,04,16,06,45,7.20
2012,04,16,06,46,7.20
2012,04,16,06,47,7.20
2012,04,16,06,48,7.20
2012,04,16,06,49,7.20
2012,04,16,06,50,7.20
2012,04,16,06,51,7.20
2012,04,16,06,52,7.20
2012,04,16,06,53,7.20
2012,04,16,06,54,7.20
2012,04,16,06,55,7.20
2012,04,16,06,56,7.20
2012,04,16,06,57,7.10
2012,04,16,06,58,7.10
2012,04,16,06,59,7.10
2012,04,16,07,00,7.10
2012,04,16,07,01,7.10
2012,04,16,07,02,7.10
2012,04,16,07,03,7.10
2012,04,16,07,04,7.10
2012,04,16,07,05,7.10
2012,04,16,07,06,7.10
2012,04,16,07,07,7.10
2012,04,16,07,08,7.10
2012,04,16,07,09,7.10
2012,04,16,07,10,7.10
2012,04,16,07,11,7.10
2012,04,16,07,12,7.10
2012,04,16,07,13,7.10
2012,04,16,07,14,7.10
2012,04,16,07,15,7.10
2012,04,16,07,16,7.10
2012,04,16,07,17,7.10
2012,04,16,07,18,7.10
2012,04,16,07,19,7.00
2012,04,16,07,20,7.00
2012,04,16,07,21,7.00
2012,04,16,07,22,7.00
2012,04,16,07,23,7.00
2012,04,16,07,24,7.00
2012,04,16,07,25,7.00
2012,04,16,07,26,7.00
2012,04,16,07,27,7.00
2012,04,16,07,28,7.00
2012,04,16,07,29,7.00
2012,04,16,07,30,7.00
2012,04,16,07,31,6.90
2012,04,16,07,32,6.90
2012,04,16,07,33,6.90
2012,04,16,07,34,6.90
2012,04,16,07,35,7.00
2012,04,16,07,36,6.90
2012,04,16,07,37,6.90
2012,04,16,07,38,6.90
2012,04,16,07,39,6.90
2012,04,16,07,40,6.90
2012,04,16,07,41,6.90
2012,04,16,07,42,6.80
2012,04,16,07,43,6.80
2012,04,16,07,44,6.80
2012,04,16,07,45,6.80
2012,04,16,07,46,6.80
2012,04,16,07,47,6.80
2012,04,16,07,48,6.80
2012,04,16,07,49,6.80
2012,04,16,07,50,6.80
2012,04,16,07,51,6.80
2012,04,16,07,52,6.80
2012,04,16,07,53,6.80
2012,04,16,07,54,6.80
2012,04,16,07,55,6.80
2012,04,16,07,56,6.80
2012,04,16,07,57,6.70
2012,04,16,07,58,6.70
2012,04,16,07,59,6.70
2012,04,16,08,00,6.70
2012,04,16,08,01,6.70
2012,04,16,08,02,6.70
2012,04,16,08,03,6.70
2012,04,16,08,04,6.70
2012,04,16,08,05,6.70
2012,04,16,08,06,6.70
2012,04,16,08,07,6.70
2012,04,16,08,08,6.70
2012,04,16,08,09,6.60
2012,04,16,08,10,6.60
2012,04,16,08,11,6.60
2012,04,16,08,12,6.60
2012,04,16,08,13,6.60
2012,04,16,08,14,6.60
2012,04,16,08,15,6.60
2012,04,16,08,16,6.60
2012,04,16,08,17,6.60
2012,04,16,08,18,6.60
2012,04,16,08,19,6.60
2012,04,16,08,20,6.60
2012,04,16,08,21,6.60
2012,04,16,08,22,6.60
2012,04,16,08,23,6.60
2012,04,16,08,24,6.60
2012,04,16,08,25,6.60
2012,04,16,08,26,6.70
2012,04,16,08,27,6.70
2012,04,16,08,28,6.70
2012,04,16,08,29,6.70
2012,04,16,08,30,6.70
2012,04,16,08,31,6.70
2012,04,16,08,32,6.70
2012,04,16,08,33,6.70
2012,04,16,08,34,6.70
2012,04,16,08,35,6.70
2012,04,16,08,36,6.70
2012,04,16,08,37,6.70
2012,04,16,08,38,6.70
2012,04,16,08,39,6.70
2012,04,16,08,40,6.70
2012,04,16,08,41,6.70
2012,04,16,08,42,6.70
2012,04,16,08,43,6.70
2012,04,16,08,44,6.70
2012,04,16,08,45,6.70
2012,04,16,08,46,6.70
2012,04,16,08,47,6.70
2012,04,16,08,48,6.70
2012,04,16,08,49,6.70
2012,04,16,08,50,6.70
2012,04,16,08,51,6.70
2012,04,16,08,52,6.70
2012,04,16,08,53,6.70
2012,04,16,08,54,6.70
2012,04,16,08,55,6.70
2012,04,16,08,56,6.70
2012,04,16,08,57,6.70
2012,04,16,08,58,6.70
2012,04,16,08,59,6.80
2012,04,16,09,00,6.80
2012,04,16,09,01,6.80
2012,04,16,09,02,6.80
2012,04,16,09,03,6.80
2012,04,16,09,04,6.80
2012,04,16,09,05,6.80
2012,04,16,09,06,6.70
2012,04,16,09,07,6.70
2012,04,16,09,08,6.80
2012,04,16,09,09,6.80
2012,04,16,09,10,6.80
2012,04,16,09,11,6.80
2012,04,16,09,12,6.80
2012,04,16,09,13,6.80
2012,04,16,09,14,6.70
2012,04,16,09,15,6.80
2012,04,16,09,16,6.80
2012,04,16,09,17,6.80
2012,04,16,09,18,6.80
2012,04,16,09,19,6.80
2012,04,16,09,20,6.80
2012,04,16,09,21,6.80
2012,04,16,09,22,6.80
2012,04,16,09,23,6.80
2012,04,16,09,24,6.80
2012,04,16,09,25,6.80
2012,04,16,09,26,6.80
2012,04,16,09,27,6.80
2012,04,16,09,28,6.80
2012,04,16,09,29,6.80
2012,04,16,09,30,6.80
2012,04,16,09,31,6.80
2012,04,16,09,32,6.80
2012,04,16,09,33,6.80
2012,04,16,09,34,6.80
2012,04,16,09,35,6.80
2012,04,16,09,36,6.80
2012,04,16,09,37,6.80
2012,04,16,09,38,6.80
2012,04,16,09,39,6.80
2012,04,16,09,40,6.90
2012,04,16,09,41,6.90
2012,04,16,09,42,6.90
2012,04,16,09,43,6.90
2012,04,16,09,44,6.90
2012,04,16,09,45,6.90
2012,04,16,09,46,6.90
2012,04,16,09,47,6.90
2012,04,16,09,48,6.90
2012,04,16,09,49,6.90
2012,04,16,09,50,6.90
2012,04,16,09,51,6.90
2012,04,16,09,52,6.90
2012,04,16,09,53,7.00
2012,04,16,09,54,7.00
2012,04,16,09,55,7.00
2012,04,16,09,56,7.00
2012,04,16,09,57,7.00
2012,04,16,09,58,7.00
2012,04,16,09,59,7.00
2012,04,16,10,00,7.00
2012,04,16,10,01,7.00
2012,04,16,10,02,7.10
2012,04,16,10,03,7.10
2012,04,16,10,04,7.00
2012,04,16,10,05,7.00
2012,04,16,10,06,7.00
2012,04,16,10,07,7.10
2012,04,16,10,08,7.10
2012,04,16,10,09,7.10
2012,04,16,10,10,7.10
2012,04,16,10,11,7.10
2012,04,16,10,12,7.10
2012,04,16,10,13,7.10
2012,04,16,10,14,7.10
2012,04,16,10,15,7.10
2012,04,16,10,16,7.10
2012,04,16,10,17,7.10
2012,04,16,10,18,7.20
2012,04,16,10,19,7.20
2012,04,16,10,20,7.20
2012,04,16,10,21,7.20
2012,04,16,10,22,7.20
2012,04,16,10,23,7.20
2012,04,16,10,24,7.20
2012,04,16,10,25,7.20
2012,04,16,10,26,7.20
2012,04,16,10,27,7.20
2012,04,16,10,28,7.20
2012,04,16,10,29,7.20
2012,04,16,10,30,7.20
2012,04,16,10,31,7.20
2012,04,16,10,32,7.20
2012,04,16,10,33,7.20
2012,04,16,10,34,7.20
2012,04,16,10,35,7.30
2012,04,16,10,36,7.30
2012,04,16,10,37,7.30
2012,04,16,10,38,7.30
2012,04,16,10,39,7.30
2012,04,16,10,40,7.30
2012,04,16,10,41,7.30
2012,04,16,10,42,7.30
2012,04,16,10,43,7.30
2012,04,16,10,44,7.30
2012,04,16,10,45,7.30
2012,04,16,10,46,7.30
2012,04,16,10,47,7.30
2012,04,16,10,48,7.30
2012,04,16,10,49,7.30
2012,04,16,10,50,7.30
2012,04,16,10,51,7.30
2012,04,16,10,52,7.30
2012,04,16,10,53,7.30
2012,04,16,10,54,7.30
2012,04,16,10,55,7.30
2012,04,16,10,56,7.30
2012,04,16,10,57,7.40
2012,04,16,10,58,7.40
2012,04,16,10,59,7.40
2012,04,16,11,00,7.40
2012,04,16,11,01,7.40
2012,04,16,11,02,7.40
2012,04,16,11,03,7.40
2012,04,16,11,04,7.40
2012,04,16,11,05,7.40
2012,04,16,11,06,7.40
2012,04,16,11,07,7.40
2012,04,16,11,08,7.40
2012,04,16,11,09,7.40
2012,04,16,11,10,7.40
2012,04,16,11,11,7.40
2012,04,16,11,12,7.40
2012,04,16,11,13,7.50
2012,04,16,11,14,7.50
2012,04,16,11,15,7.50
2012,04,16,11,16,7.50
2012,04,16,11,17,7.50
2012,04,16,11,18,7.50
2012,04,16,11,19,7.60
2012,04,16,11,20,7.50
2012,04,16,11,21,7.60
2012,04,16,11,22,7.60
2012,04,16,11,23,7.60
2012,04,16,11,24,7.60
2012,04,16,11,25,7.60
2012,04,16,11,26,7.60
2012,04,16,11,27,7.60
2012,04,16,11,28,7.60
2012,04,16,11,29,7.60
2012,04,16,11,30,7.60
2012,04,16,11,31,7.70
2012,04,16,11,32,7.70
2012,04,16,11,33,7.70
2012,04,16,11,34,7.70
2012,04,16,11,35,7.70
2012,04,16,11,36,7.70
2012,04,16,11,37,7.70
2012,04,16,11,38,7.70
2012,04,16,11,39,7.70
2012,04,16,11,40,7.70
2012,04,16,11,41,7.80
2012,04,16,11,42,7.80
2012,04,16,11,43,7.80
2012,04,16,11,44,7.80
2012,04,16,11,45,7.80
2012,04,16,11,46,7.80
2012,04,16,11,47,7.80
2012,04,16,11,48,7.80
2012,04,16,11,49,7.90
2012,04,16,11,50,7.90
2012,04,16,11,51,7.90
2012,04,16,11,52,8.00
2012,04,16,11,53,8.00
2012,04,16,11,54,7.90
2012,04,16,11,55,8.00
2012,04,16,11,56,8.00
2012,04,16,11,57,8.10
2012,04,16,11,58,8.10
2012,04,16,11,59,8.10
2012,04,16,12,00,8.10
2012,04,16,12,01,8.10
2012,04,16,12,02,8.10
2012,04,16,12,03,8.10
2012,04,16,12,04,8.10
2012,04,16,12,05,8.20
2012,04,16,12,06,8.20
2012,04,16,12,07,8.20
2012,04,16,12,08,8.20
2012,04,16,12,09,8.20
2012,04,16,12,10,8.30
2012,04,16,12,11,8.40
2012,04,16,12,12,8.40
2012,04,16,12,13,8.50
2012,04,16,12,14,8.50
2012,04,16,12,15,8.60
2012,04,16,12,16,8.60
2012,04,16,12,17,8.60
2012,04,16,12,18,8.60
2012,04,16,12,19,8.60
2012,04,16,12,20,8.60
2012,04,16,12,21,8.60
2012,04,16,12,22,8.70
2012,04,16,12,23,8.80
2012,04,16,12,24,8.80
2012,04,16,12,25,9.00
2012,04,16,12,26,9.10
2012,04,16,12,27,9.20
2012,04,16,12,28,9.30
2012,04,16,12,29,9.30
2012,04,16,12,30,9.30
2012,04,16,12,31,9.20
2012,04,16,12,32,9.20
2012,04,16,12,33,9.10
2012,04,16,12,34,9.20
2012,04,16,12,35,9.20
2012,04,16,12,36,9.20
2012,04,16,12,37,9.30
2012,04,16,12,38,9.40
2012,04,16,12,39,9.40
2012,04,16,12,40,9.50
2012,04,16,12,41,9.60
2012,04,16,12,42,9.70
2012,04,16,12,43,9.70
2012,04,16,12,44,9.70
2012,04,16,12,45,9.70
2012,04,16,12,46,9.70
2012,04,16,12,47,9.80
2012,04,16,12,48,9.80
2012,04,16,12,49,9.90
2012,04,16,12,50,10.10
2012,04,16,12,51,10.20
2012,04,16,12,52,10.20
2012,04,16,12,53,10.20
2012,04,16,12,54,10.30
2012,04,16,12,55,10.20
2012,04,16,12,56,10.30
2012,04,16,12,57,10.40
2012,04,16,12,58,10.60
2012,04,16,12,59,10.70
2012,04,16,13,00,10.80
2012,04,16,13,01,10.90
2012,04,16,13,02,11.00
2012,04,16,13,03,11.10
2012,04,16,13,04,11.20
2012,04,16,13,05,11.30
2012,04,16,13,06,11.30
2012,04,16,13,07,11.40
2012,04,16,13,08,11.50
2012,04,16,13,09,11.50
2012,04,16,13,10,11.50
2012,04,16,13,11,11.50
2012,04,16,13,12,11.60
2012,04,16,13,13,11.60
2012,04,16,13,14,11.60
2012,04,16,13,15,11.70
2012,04,16,13,16,11.60
2012,04,16,13,17,11.60
2012,04,16,13,18,11.70
2012,04,16,13,19,11.70
2012,04,16,13,20,11.80
2012,04,16,13,21,11.80
2012,04,16,13,22,11.80
2012,04,16,13,23,11.80
2012,04,16,13,24,11.80
2012,04,16,13,25,11.80
2012,04,16,13,26,11.80
2012,04,16,13,27,11.90
2012,04,16,13,28,11.90
2012,04,16,13,29,11.90
2012,04,16,13,30,11.90
2012,04,16,13,31,12.00
2012,04,16,13,32,12.00
2012,04,16,13,33,12.10
2012,04,16,13,34,12.20
2012,04,16,13,35,12.10
2012,04,16,13,36,12.10
2012,04,16,13,37,12.10
2012,04,16,13,38,12.00
2012,04,16,13,39,12.00
2012,04,16,13,40,12.00
2012,04,16,13,41,12.10
2012,04,16,13,42,12.20
2012,04,16,13,43,12.20
2012,04,16,13,44,12.20
2012,04,16,13,45,12.10
2012,04,16,13,46,12.10
2012,04,16,13,47,12.10
2012,04,16,13,48,12.00
2012,04,16,13,49,12.00
2012,04,16,13,50,12.00
2012,04,16,13,51,12.00
2012,04,16,13,52,11.90
2012,04,16,13,53,11.80
2012,04,16,13,54,11.80
2012,04,16,13,55,11.80
2012,04,16,13,56,11.80
2012,04,16,13,57,11.80
2012,04,16,13,58,11.80
2012,04,16,13,59,11.80
2012,04,16,14,00,11.80
2012,04,16,14,01,11.80
2012,04,16,14,02,11.90
2012,04,16,14,03,11.90
2012,04,16,14,04,12.00
2012,04,16,14,05,12.00
2012,04,16,14,06,12.00
2012,04,16,14,07,12.00
2012,04,16,14,08,12.00
2012,04,16,14,09,12.00
2012,04,16,14,10,12.00
2012,04,16,14,11,12.00
2012,04,16,14,12,12.00
2012,04,16,14,13,12.00
2012,04,16,14,14,12.00
2012,04,16,14,15,12.10
2012,04,16,14,16,12.10
2012,04,16,14,17,12.20
2012,04,16,14,18,12.20
2012,04,16,14,19,12.20
2012,04,16,14,20,12.20
2012,04,16,14,21,12.10
2012,04,16,14,22,12.00
2012,04,16,14,23,11.90
2012,04,16,14,24,12.00
2012,04,16,14,25,12.10
2012,04,16,14,26,12.10
2012,04,16,14,27,12.20
2012,04,16,14,28,12.10
2012,04,16,14,29,12.00
2012,04,16,14,30,12.00
2012,04,16,14,31,11.90
2012,04,16,14,32,11.90
2012,04,16,14,33,12.00
2012,04,16,14,34,12.10
2012,04,16,14,35,12.10
2012,04,16,14,36,12.00
2012,04,16,14,37,12.00
2012,04,16,14,38,12.00
2012,04,16,14,39,12.10
2012,04,16,14,40,12.20
2012,04,16,14,41,12.30
2012,04,16,14,42,12.20
2012,04,16,14,43,12.20
2012,04,16,14,44,12.10
2012,04,16,14,45,12.00
2012,04,16,14,46,12.00
2012,04,16,14,47,12.00
2012,04,16,14,48,12.00
2012,04,16,14,49,12.00
2012,04,16,14,50,11.80
2012,04,16,14,51,11.60
2012,04,16,14,52,11.50
2012,04,16,14,53,11.40
2012,04,16,14,54,11.50
2012,04,16,14,55,11.50
2012,04,16,14,56,11.60
2012,04,16,14,57,11.80
2012,04,16,14,58,11.80
2012,04,16,14,59,11.90
2012,04,16,15,00,12.00
2012,04,16,15,01,12.00
2012,04,16,15,02,12.10
2012,04,16,15,03,12.10
2012,04,16,15,04,12.20
2012,04,16,15,05,12.20
2012,04,16,15,06,12.20
2012,04,16,15,07,12.20
2012,04,16,15,08,12.10
2012,04,16,15,09,12.10
2012,04,16,15,10,12.10
2012,04,16,15,11,12.10
2012,04,16,15,12,12.10
2012,04,16,15,13,12.00
2012,04,16,15,14,12.00
2012,04,16,15,15,11.90
2012,04,16,15,16,11.90
2012,04,16,15,17,11.90
2012,04,16,15,18,11.90
2012,04,16,15,19,11.90
2012,04,16,15,20,11.80
2012,04,16,15,21,11.80
2012,04,16,15,22,11.80
2012,04,16,15,23,11.80
2012,04,16,15,24,11.70
2012,04,16,15,25,11.60
2012,04,16,15,26,11.60
2012,04,16,15,27,11.60
2012,04,16,15,28,11.60
2012,04,16,15,29,11.60
2012,04,16,15,30,11.60
2012,04,16,15,31,11.60
2012,04,16,15,32,11.60
2012,04,16,15,33,11.60
2012,04,16,15,34,11.60
2012,04,16,15,35,11.60
2012,04,16,15,36,11.60
2012,04,16,15,37,11.70
2012,04,16,15,38,11.70
2012,04,16,15,39,11.70
2012,04,16,15,40,11.70
2012,04,16,15,41,11.80
2012,04,16,15,42,11.80
2012,04,16,15,43,11.70
2012,04,16,15,44,11.70
2012,04,16,15,45,11.80
2012,04,16,15,46,11.70
2012,04,16,15,47,11.70
2012,04,16,15,48,11.70
2012,04,16,15,49,11.70
2012,04,16,15,50,11.70
2012,04,16,15,51,11.70
2012,04,16,15,52,11.50
2012,04,16,15,53,11.30
2012,04,16,15,54,11.20
2012,04,16,15,55,11.10
2012,04,16,15,56,11.00
2012,04,16,15,57,11.00
2012,04,16,15,58,11.00
2012,04,16,15,59,11.00
2012,04,16,16,00,11.10
2012,04,16,16,01,11.20
2012,04,16,16,02,11.20
2012,04,16,16,03,11.20
2012,04,16,16,04,11.20
2012,04,16,16,05,11.20
2012,04,16,16,06,11.10
2012,04,16,16,07,11.10
2012,04,16,16,08,11.10
2012,04,16,16,09,11.10
2012,04,16,16,10,11.20
2012,04,16,16,11,11.20
2012,04,16,16,12,11.20
2012,04,16,16,13,11.20
2012,04,16,16,14,11.20
2012,04,16,16,15,11.20
2012,04,16,16,16,11.30
2012,04,16,16,17,11.20
2012,04,16,16,18,11.20
2012,04,16,16,19,11.20
2012,04,16,16,20,11.10
2012,04,16,16,21,11.10
2012,04,16,16,22,11.00
2012,04,16,16,23,11.00
2012,04,16,16,24,10.90
2012,04,16,16,25,11.00
2012,04,16,16,26,11.00
2012,04,16,16,27,11.00
2012,04,16,16,28,11.00
2012,04,16,16,29,11.00
2012,04,16,16,30,11.00
2012,04,16,16,31,11.10
2012,04,16,16,32,11.10
2012,04,16,16,33,11.10
2012,04,16,16,34,11.10
2012,04,16,16,35,11.10
2012,04,16,16,36,11.10
2012,04,16,16,37,11.10
2012,04,16,16,38,11.10
2012,04,16,16,39,11.10
2012,04,16,16,40,11.10
2012,04,16,16,41,11.10
2012,04,16,16,42,11.20
2012,04,16,16,43,11.10
2012,04,16,16,44,11.10
2012,04,16,16,45,11.00
2012,04,16,16,46,10.90
2012,04,16,16,47,10.90
2012,04,16,16,48,10.80
2012,04,16,16,49,10.80
2012,04,16,16,50,10.80
2012,04,16,16,51,10.80
2012,04,16,16,52,10.70
2012,04,16,16,53,10.70
2012,04,16,16,54,10.60
2012,04,16,16,55,10.50
2012,04,16,16,56,10.40
2012,04,16,16,57,10.40
2012,04,16,16,58,10.40
2012,04,16,16,59,10.40
2012,04,16,17,00,10.40
2012,04,16,17,01,10.40
2012,04,16,17,02,10.40
2012,04,16,17,03,10.40
2012,04,16,17,04,10.40
2012,04,16,17,05,10.50
2012,04,16,17,06,10.50
2012,04,16,17,07,10.50
2012,04,16,17,08,10.50
2012,04,16,17,09,10.60
2012,04,16,17,10,10.60
2012,04,16,17,11,10.60
2012,04,16,17,12,10.60
2012,04,16,17,13,10.60
2012,04,16,17,14,10.50
2012,04,16,17,15,10.50
2012,04,16,17,16,10.50
2012,04,16,17,17,10.60
2012,04,16,17,18,10.60
2012,04,16,17,19,10.60
2012,04,16,17,20,10.60
2012,04,16,17,21,10.60
2012,04,16,17,22,10.50
2012,04,16,17,23,10.50
2012,04,16,17,24,10.50
2012,04,16,17,25,10.40
2012,04,16,17,26,10.40
2012,04,16,17,27,10.40
2012,04,16,17,28,10.40
2012,04,16,17,29,10.40
2012,04,16,17,30,10.30
2012,04,16,17,31,10.20
2012,04,16,17,32,10.20
2012,04,16,17,33,10.10
2012,04,16,17,34,10.00
2012,04,16,17,35,10.00
2012,04,16,17,36,9.90
2012,04,16,17,37,9.90
2012,04,16,17,38,9.90
2012,04,16,17,39,9.90
2012,04,16,17,40,9.90
2012,04,16,17,41,9.80
2012,04,16,17,42,9.80
2012,04,16,17,43,9.80
2012,04,16,17,44,9.70
2012,04,16,17,45,9.60
2012,04,16,17,46,9.60
2012,04,16,17,47,9.60
2012,04,16,17,48,9.60
2012,04,16,17,49,9.50
2012,04,16,17,50,9.50
2012,04,16,17,51,9.40
2012,04,16,17,52,9.40
2012,04,16,17,53,9.40